TimeEDT,TemperatureF,Dew PointF,Humidity,Sea Level PressureIn,VisibilityMPH,Wind Direction,Wind SpeedMPH,Gust SpeedMPH,PrecipitationIn,Events,Conditions,WindDirDegrees,DateUTC
12:54 AM,69.1,64.9,87,30.15,6.0,Calm,Calm,-,N/A,,Clear,0,2007-06-28 04:54:00
1:54 AM,68.0,64.9,90,30.15,3.0,Calm,Calm,-,N/A,,Clear,0,2007-06-28 05:54:00
2:54 AM,66.9,64.0,90,30.14,4.0,Calm,Calm,-,N/A,,Partly Cloudy,0,2007-06-28 06:54:00
3:15 AM,66.2,64.4,94,30.22,2.0,Calm,Calm,-,N/A,,Scattered Clouds,0,2007-06-28 07:15:00
3:18 AM,66.2,64.4,94,30.22,1.2,Calm,Calm,-,N/A,,Scattered Clouds,0,2007-06-28 07:18:00
3:23 AM,66.2,64.4,94,30.22,0.2,Calm,Calm,-,N/A,Fog,Fog,0,2007-06-28 07:23:00
3:32 AM,66.2,64.4,94,30.21,0.5,Calm,Calm,-,N/A,Fog,Fog,0,2007-06-28 07:32:00
3:36 AM,66.2,64.4,94,30.21,1.5,Calm,Calm,-,N/A,,Scattered Clouds,0,2007-06-28 07:36:00
3:41 AM,64.4,64.4,100,30.21,3.0,Calm,Calm,-,N/A,,Scattered Clouds,0,2007-06-28 07:41:00
3:45 AM,64.4,62.6,94,30.21,1.8,SSW,3.5,-,N/A,,Scattered Clouds,210,2007-06-28 07:45:00
3:49 AM,64.4,62.6,94,30.21,0.8,Calm,Calm,-,N/A,,Scattered Clouds,0,2007-06-28 07:49:00
3:54 AM,64.9,63.0,93,30.13,0.5,Calm,Calm,-,N/A,Fog,Fog,0,2007-06-28 07:54:00
4:02 AM,64.4,62.6,94,30.21,1.2,Calm,Calm,-,N/A,,Scattered Clouds,0,2007-06-28 08:02:00
4:04 AM,64.4,62.6,94,30.21,2.0,Calm,Calm,-,N/A,,Partly Cloudy,0,2007-06-28 08:04:00
4:21 AM,64.4,62.6,94,30.20,3.0,Calm,Calm,-,N/A,,Partly Cloudy,0,2007-06-28 08:21:00
4:54 AM,64.9,63.0,93,30.12,4.0,Calm,Calm,-,N/A,,Clear,0,2007-06-28 08:54:00
5:22 AM,64.4,62.6,94,30.20,2.5,Calm,Calm,-,N/A,,Partly Cloudy,0,2007-06-28 09:22:00
5:29 AM,64.4,62.6,94,30.20,1.8,Calm,Calm,-,N/A,,Mostly Cloudy,0,2007-06-28 09:29:00
5:42 AM,64.4,62.6,94,30.20,1.0,Calm,Calm,-,N/A,,Mostly Cloudy,0,2007-06-28 09:42:00
5:46 AM,64.4,62.6,94,30.20,0.2,Calm,Calm,-,N/A,Fog,Fog,0,2007-06-28 09:46:00
5:54 AM,63.0,61.0,93,30.13,0.2,Calm,Calm,-,N/A,Fog,Fog,0,2007-06-28 09:54:00
5:58 AM,62.6,60.8,94,30.20,1.2,Calm,Calm,-,N/A,,Mostly Cloudy,0,2007-06-28 09:58:00
6:00 AM,62.6,60.8,94,30.20,2.5,Calm,Calm,-,N/A,,Mostly Cloudy,0,2007-06-28 10:00:00
6:09 AM,62.6,62.6,100,30.20,3.0,Calm,Calm,-,N/A,,Scattered Clouds,0,2007-06-28 10:09:00
6:18 AM,62.6,60.8,94,30.20,2.0,Calm,Calm,-,N/A,,Mostly Cloudy,0,2007-06-28 10:18:00
6:20 AM,62.6,62.6,100,30.20,1.2,Calm,Calm,-,N/A,Fog,Fog,0,2007-06-28 10:20:00
6:27 AM,64.4,62.6,94,30.21,0.5,Calm,Calm,-,N/A,Fog,Fog,0,2007-06-28 10:27:00
6:54 AM,64.0,63.0,96,30.13,0.2,Calm,Calm,-,N/A,Fog,Fog,0,2007-06-28 10:54:00
7:21 AM,64.4,62.6,94,30.22,0.2,Calm,Calm,-,N/A,Fog,Fog,0,2007-06-28 11:21:00
7:54 AM,64.9,63.0,93,30.15,0.2,Calm,Calm,-,N/A,Fog,Fog,0,2007-06-28 11:54:00
8:13 AM,64.4,64.4,100,30.22,0.8,Calm,Calm,-,N/A,,Overcast,0,2007-06-28 12:13:00
8:25 AM,64.4,64.4,100,30.22,1.0,Calm,Calm,-,N/A,,Overcast,0,2007-06-28 12:25:00
8:54 AM,66.0,64.9,96,30.14,1.0,Calm,Calm,-,N/A,,Mist,0,2007-06-28 12:54:00
9:01 AM,66.2,64.4,94,30.22,1.5,Calm,Calm,-,N/A,,Partly Cloudy,0,2007-06-28 13:01:00
9:54 AM,73.9,64.9,73,30.14,7.0,Calm,Calm,-,N/A,,Clear,0,2007-06-28 13:54:00
10:54 AM,78.1,64.9,64,30.13,8.0,Calm,Calm,-,N/A,,Clear,0,2007-06-28 14:54:00
11:54 AM,82.9,62.1,49,30.12,10.0,North,6.9,-,N/A,,Clear,350,2007-06-28 15:54:00
12:54 PM,86.0,63.0,46,30.10,9.0,Variable,3.5,-,N/A,,Partly Cloudy,0,2007-06-28 16:54:00
1:46 PM,78.8,66.2,65,30.17,2.0,NW,5.8,-,0.03,Rain,Rain,310,2007-06-28 17:46:00
1:50 PM,78.8,66.2,65,30.17,3.0,West,8.1,-,0.03,Rain,Light Rain,260,2007-06-28 17:50:00
1:54 PM,75.0,66.0,73,30.09,4.0,West,9.2,-,0.04,Rain,Rain,260,2007-06-28 17:54:00
2:12 PM,73.4,64.4,73,30.16,9.0,WSW,6.9,-,0.00,,Scattered Clouds,240,2007-06-28 18:12:00
2:54 PM,72.0,64.0,76,30.10,10.0,SSW,10.4,-,0.00,Rain,Light Rain,200,2007-06-28 18:54:00
3:54 PM,73.9,63.0,68,30.10,10.0,Calm,Calm,-,0.00,,Partly Cloudy,0,2007-06-28 19:54:00
4:54 PM,75.9,64.9,69,30.07,10.0,Variable,4.6,-,N/A,,Clear,0,2007-06-28 20:54:00
5:54 PM,75.9,66.0,71,30.06,10.0,West,3.5,-,N/A,,Clear,260,2007-06-28 21:54:00
6:54 PM,77.0,64.9,66,30.06,10.0,North,6.9,-,N/A,,Clear,360,2007-06-28 22:54:00
7:54 PM,75.9,64.9,69,30.08,9.0,NE,3.5,-,N/A,,Scattered Clouds,50,2007-06-28 23:54:00
8:54 PM,73.9,64.0,71,30.09,10.0,Calm,Calm,-,N/A,,Clear,0,2007-06-29 00:54:00
9:54 PM,72.0,64.0,76,30.10,10.0,Calm,Calm,-,N/A,,Clear,0,2007-06-29 01:54:00
10:54 PM,71.1,64.0,78,30.10,10.0,Calm,Calm,-,N/A,,Clear,0,2007-06-29 02:54:00
11:54 PM,70.0,63.0,78,30.09,9.0,Calm,Calm,-,N/A,,Clear,0,2007-06-29 03:54:00